| time (UTC) | temp C | wind direction | speed KPH | gust KPH | rain 1hr cm | rain 24hr cm | rain mn cm | humidity % | barometer mb |
| 20260905221514 | 24 | 331 | 3.2 | 6.4 | 0.00 | 0.00 | 0.00 | 59 | 1011.2 |
| 20260905220024 | 25 | 21 | 1.6 | 8.0 | 0.00 | 0.00 | 0.00 | 56 | 1011.1 |
| 20260905214526 | 25 | 350 | 1.6 | 6.4 | 0.00 | 0.00 | 0.00 | 56 | 1011.0 |
| 20260905213005 | 25 | 346 | 4.8 | 12.9 | 0.00 | 0.00 | 0.00 | 54 | 1010.9 |
| 20260905211512 | 26 | 321 | 3.2 | 4.8 | 0.00 | 0.00 | 0.00 | 54 | 1010.8 |
| 20260905210019 | 25 | 28 | 1.6 | 6.4 | 0.00 | 0.00 | 0.00 | 54 | 1010.9 |
| 20260905204524 | 25 | 130 | 0.0 | 4.8 | 0.00 | 0.00 | 0.00 | 57 | 1010.9 |
| 20260905203029 | 25 | 28 | 0.0 | 9.7 | 0.00 | 0.00 | 0.00 | 54 | 1010.9 |
| 20260905201510 | 25 | 20 | 3.2 | 9.7 | 0.00 | 0.00 | 0.00 | 53 | 1011.1 |
| 20260905200028 | 25 | 15 | 4.8 | 6.4 | 0.00 | 0.00 | 0.00 | 55 | 1011.2 |
| 20260905194524 | 26 | 360 | 4.8 | 8.0 | 0.00 | 0.00 | 0.00 | 52 | 1011.1 |
| 20260905193030 | 25 | 38 | 3.2 | 12.9 | 0.00 | 0.00 | 0.00 | 51 | 1011.2 |
| 20260905191529 | 25 | 20 | 3.2 | 11.3 | 0.00 | 0.00 | 0.00 | 54 | 1011.2 |
| 20260905190014 | 26 | 352 | 3.2 | 8.0 | 0.00 | 0.00 | 0.00 | 54 | 1011.3 |
| 20260905184523 | 25 | 339 | 4.8 | 12.9 | 0.00 | 0.00 | 0.00 | 57 | 1011.5 |
| 20260905183029 | 25 | 296 | 3.2 | 8.0 | 0.00 | 0.00 | 0.00 | 57 | 1011.5 |
| 20260905181530 | 25 | 276 | 1.6 | 8.0 | 0.00 | 0.00 | 0.00 | 58 | 1011.6 |
| 20260905180012 | 25 | 238 | 3.2 | 9.7 | 0.00 | 0.00 | 0.00 | 59 | 1011.6 |
| 20260905174528 | 25 | 360 | 3.2 | 9.7 | 0.00 | 0.00 | 0.00 | 59 | 1011.8 |
| 20260905173026 | 25 | 352 | 1.6 | 9.7 | 0.00 | 0.00 | 0.00 | 61 | 1011.7 |
| 20260905171528 | 25 | 21 | 1.6 | 8.0 | 0.00 | 0.00 | 0.00 | 59 | 1011.8 |
| 20260905170032 | 26 | 18 | 3.2 | 4.8 | 0.00 | 0.00 | 0.00 | 61 | 1011.8 |
| 20260905164516 | 25 | 9 | 1.6 | 9.7 | 0.00 | 0.00 | 0.00 | 58 | 1012.0 |
| 20260905163023 | 25 | 200 | 0.0 | 6.4 | 0.00 | 0.00 | 0.00 | 63 | 1012.3 |
| 20260905161528 | 25 | 352 | 3.2 | 8.0 | 0.00 | 0.00 | 0.00 | 60 | 1012.4 |
| 20260905160046 | 24 | 19 | 1.6 | 4.8 | 0.00 | 0.00 | 0.00 | 62 | 1012.6 |
| 20260905154539 | 24 | 185 | 1.6 | 6.4 | 0.00 | 0.00 | 0.00 | 61 | 1012.5 |
| 20260905153015 | 24 | 186 | 3.2 | 9.7 | 0.00 | 0.00 | 0.00 | 62 | 1012.7 |
| 20260905151527 | 24 | 340 | 1.6 | 6.4 | 0.00 | 0.00 | 0.00 | 65 | 1012.6 |
| 20260905150031 | 24 | 360 | 0.0 | 8.0 | 0.00 | 0.00 | 0.00 | 66 | 1012.6 |
| 20260905144544 | 23 | 322 | 4.8 | 9.7 | 0.00 | 0.00 | 0.00 | 67 | 1012.4 |
| 20260905143037 | 23 | 323 | 4.8 | 11.3 | 0.00 | 0.00 | 0.00 | 68 | 1012.3 |
| 20260905141540 | 23 | 25 | 3.2 | 9.7 | 0.00 | 0.00 | 0.00 | 68 | 1012.4 |
| 20260905140030 | 22 | 22 | 6.4 | 12.9 | 0.00 | 0.00 | 0.00 | 68 | 1012.6 |
| 20260905134530 | 22 | 352 | 3.2 | 8.0 | 0.00 | 0.00 | 0.00 | 73 | 1012.6 |
| 20260905133047 | 22 | 352 | 1.6 | 9.7 | 0.00 | 0.00 | 0.00 | 73 | 1012.5 |
| 20260905131550 | 22 | 306 | 1.6 | 6.4 | 0.00 | 0.00 | 0.00 | 73 | 1012.5 |
| 20260905130027 | 21 | 104 | 0.0 | 3.2 | 0.00 | 0.00 | 0.00 | 76 | 1012.4 |
| 20260905124529 | 21 | 276 | 0.0 | 3.2 | 0.00 | 0.00 | 0.00 | 78 | 1012.4 |
| 20260905123034 | 21 | 240 | 0.0 | 3.2 | 0.00 | 0.00 | 0.00 | 78 | 1012.3 |
| 20260905121514 | 21 | 229 | 0.0 | 3.2 | 0.00 | 0.00 | 0.00 | 81 | 1012.2 |
| 20260905120028 | 20 | 288 | 0.0 | 0.0 | 0.00 | 0.00 | 0.00 | 83 | 1012.3 |
| 20260905114550 | 20 | 308 | 0.0 | 0.0 | 0.00 | 0.00 | 0.00 | 85 | 1012.2 |
| 20260905113034 | 20 | 308 | 0.0 | 0.0 | 0.00 | 0.00 | 0.00 | 84 | 1012.3 |
| 20260905111533 | 20 | 308 | 0.0 | 3.2 | 0.00 | 0.00 | 0.00 | 84 | 1012.2 |
| 20260905110027 | 20 | 304 | 0.0 | 0.0 | 0.00 | 0.00 | 0.00 | 83 | 1012.0 |
| 20260905104529 | 20 | 304 | 0.0 | 3.2 | 0.00 | 0.00 | 0.00 | 80 | 1011.8 |
| 20260905103036 | 20 | 314 | 0.0 | 1.6 | 0.00 | 0.00 | 0.00 | 85 | 1011.4 |
| 20260905101535 | 20 | 285 | 0.0 | 3.2 | 0.00 | 0.00 | 0.00 | 85 | 1011.3 |
| 20260905100019 | 20 | 284 | 0.0 | 0.0 | 0.00 | 0.00 | 0.00 | 85 | 1011.2 |
| 20260905094524 | 20 | 329 | 0.0 | 0.0 | 0.00 | 0.00 | 0.00 | 84 | 1011.1 |
| 20260905093004 | 21 | 329 | 0.0 | 0.0 | 0.00 | 0.00 | 0.00 | 82 | 1011.1 |
| 20260905091510 | 21 | 329 | 0.0 | 4.8 | 0.00 | 0.00 | 0.00 | 80 | 1011.0 |
| 20260905090016 | 21 | 309 | 0.0 | 3.2 | 0.00 | 0.00 | 0.00 | 81 | 1011.1 |
| 20260905084526 | 21 | 349 | 0.0 | 3.2 | 0.00 | 0.00 | 0.00 | 83 | 1011.1 |
| 20260905083026 | 20 | 298 | 0.0 | 1.6 | 0.00 | 0.00 | 0.00 | 86 | 1011.1 |
| 20260905081507 | 21 | 350 | 0.0 | 0.0 | 0.00 | 0.00 | 0.00 | 86 | 1011.1 |
| 20260905080020 | 21 | 350 | 0.0 | 0.0 | 0.00 | 0.00 | 0.00 | 85 | 1011.1 |
| 20260905074525 | 21 | 350 | 0.0 | 0.0 | 0.00 | 0.00 | 0.00 | 85 | 1011.2 |
| 20260905073037 | 21 | 350 | 0.0 | 3.2 | 0.00 | 0.00 | 0.00 | 83 | 1011.2 |
| 20260905071532 | 20 | 38 | 0.0 | 0.0 | 0.00 | 0.00 | 0.00 | 92 | 1011.3 |
| 20260905070013 | 21 | 38 | 0.0 | 0.0 | 0.00 | 0.00 | 0.00 | 95 | 1011.3 |
| 20260905064516 | 21 | 38 | 0.0 | 0.0 | 0.00 | 0.00 | 0.00 | 95 | 1011.2 |
| 20260905063027 | 21 | 38 | 0.0 | 0.0 | 0.00 | 0.00 | 0.00 | 94 | 1011.4 |
| 20260905061528 | 21 | 38 | 0.0 | 0.0 | 0.00 | 0.00 | 0.00 | 94 | 1011.3 |
| 20260905060028 | 21 | 38 | 0.0 | 0.0 | 0.00 | 0.00 | 0.00 | 94 | 1011.4 |
| 20260905054516 | 21 | 38 | 0.0 | 0.0 | 0.00 | 0.00 | 0.00 | 93 | 1011.5 |
| 20260905053033 | 21 | 38 | 0.0 | 0.0 | 0.00 | 0.00 | 0.00 | 93 | 1011.6 |
| 20260905051527 | 21 | 38 | 0.0 | 1.6 | 0.00 | 0.00 | 0.00 | 94 | 1011.7 |
| 20260905050036 | 21 | 152 | 0.0 | 0.0 | 0.00 | 0.00 | 0.00 | 94 | 1011.7 |
| 20260905044544 | 22 | 152 | 0.0 | 1.6 | 0.00 | 0.00 | 0.00 | 93 | 1011.9 |
| 20260905043020 | 22 | 152 | 0.0 | 1.6 | 0.00 | 0.00 | 0.00 | 93 | 1012.0 |
| 20260905041527 | 22 | 152 | 0.0 | 1.6 | 0.00 | 0.00 | 0.00 | 92 | 1012.0 |
| 20260905040030 | 22 | 152 | 0.0 | 0.0 | 0.00 | 0.00 | 0.00 | 92 | 1012.0 |
| 20260905034549 | 22 | 152 | 0.0 | 0.0 | 0.00 | 0.38 | 0.00 | 91 | 1011.9 |
| 20260905033029 | 22 | 152 | 0.0 | 0.0 | 0.00 | 0.51 | 0.00 | 92 | 1012.2 |
| 20260905031527 | 22 | 152 | 0.0 | 3.2 | 0.00 | 0.51 | 0.00 | 92 | 1012.1 |
| 20260905030006 | 23 | 34 | 0.0 | 1.6 | 0.00 | 0.51 | 0.00 | 91 | 1012.0 |
| 20260905024508 | 23 | 34 | 0.0 | 0.0 | 0.00 | 0.51 | 0.00 | 90 | 1011.9 |
| 20260905023037 | 23 | 34 | 0.0 | 3.2 | 0.00 | 0.51 | 0.00 | 90 | 1011.7 |
| 20260905021520 | 23 | 34 | 0.0 | 1.6 | 0.00 | 0.51 | 0.00 | 1011.5 | |
| 20260905020029 | 23 | 34 | 0.0 | 0.0 | 0.00 | 0.51 | 0.00 | 89 | 1011.5 |
| 20260905014505 | 23 | 34 | 0.0 | 0.0 | 0.00 | 0.51 | 0.00 | 89 | 1011.7 |
| 20260905013007 | 23 | 34 | 0.0 | 1.6 | 0.00 | 0.51 | 0.00 | 1011.7 | |
| 20260905011517 | 23 | 116 | 0.0 | 0.0 | 0.00 | 0.51 | 0.00 | 88 | 1011.7 |
| 20260905010031 | 23 | 116 | 0.0 | 0.0 | 0.00 | 0.51 | 0.00 | 88 | 1011.6 |
| 20260905004530 | 23 | 116 | 0.0 | 0.0 | 0.00 | 0.51 | 0.00 | 88 | 1011.7 |
| 20260905003008 | 23 | 116 | 0.0 | 0.0 | 0.00 | 0.51 | 0.00 | 88 | 1011.7 |
| 20260905001519 | 23 | 116 | 0.0 | 0.0 | 0.00 | 0.51 | 0.00 | 87 | 1011.5 |
| 20260905000021 | 24 | 116 | 0.0 | 0.0 | 0.00 | 0.51 | 0.00 | 85 | 1011.4 |
| 20260904234533 | 25 | 116 | 0.0 | 0.0 | 0.00 | 0.51 | 0.00 | 84 | 1011.3 |
| 20260904233031 | 25 | 116 | 0.0 | 0.0 | 0.00 | 0.51 | 0.00 | 82 | 1011.2 |
| 20260904231511 | 25 | 116 | 0.0 | 0.0 | 0.00 | 0.51 | 0.00 | 82 | 1011.1 |
| 20260904230014 | 26 | 116 | 0.0 | 0.0 | 0.00 | 0.51 | 0.00 | 79 | 1011.1 |
| 20260904224520 | 26 | 116 | 0.0 | 0.0 | 0.00 | 0.51 | 0.00 | 78 | 1011.1 |
| 20260904223028 | 27 | 116 | 0.0 | 3.2 | 0.00 | 0.51 | 0.00 | 76 | 1011.3 |